Погода в Иртышске

Погода в Иртышске : погода сейчас, прогноз погоды и архив. Всё, что Вы хотите узнать о погоде в Иртышске!

Хотите узнать прогноз погоды в Иртышске? Тогда Вам сюда: Погода в Иртышске

Поиск расширенной информации на нашем сайте:

Другие новости

Новости СМИ2

Главная страница сайта

Новости сайта

03.07.2017

Напоминаем, что на нашем специализированном сайте Метеоцентр.Азия вы можете получить высокодетализированные автоматические прогнозы погоды по пунктам России, СНГ и мира в авиационном формате (включающие направление и скорость ветра, видимость, явления погоды, количество и форму облачности, нижнюю и верхнюю границу облачности).

Рекомендуем: Описание автозапчасти для mercedes у нас на сайте.

Погода в Иртышске - сегодня

Время (UTC), дата Ветер
(°,м/с) 
Видим.   Явления Облачность Т
(°С)
Тd
(°С)
f(%) Тe
(°С)
Pmin
(гПа)
dP
(гПа)
Po
(мм)
O2
(г/м3)
Тmin Tmax R s Состояние
почвы
00 17.08.17 тихо ()   10 км    8/5 1000 м кучево-дожд., средняя 
[Cb calv|Ac trans]
+16.1 +10.8 71 +18  1018.2  -0.1  755  285           
03 17.08.17 280 (З) 10 км    10/10 600 м кучево-дожд. 
[Cb calv]
+19.2 +11.6 61 +23  1018  -0.1  755  282           
06 17.08.17 300 (СЗ) 10 км    8/4 1000 м средняя, верхняя 
[Cu hum|Ac trans|Ci fib]
+25.1 +11.8 43 +29  1016.8  -0.9  755  276  +15.5         
09 17.08.17 340 (С) 10 км    8/6 600 м кучево-дожд., средняя 
[Cb calv|Ac trans]
+26.5 +11.2 38 +29  1015.6  -1.2  754  275           
12 17.08.17 тихо ()   10 км  гроза без осадков{ливн. осадки}  9/9 600 м кучево-дожд. 
[Cb cap]
+19.8 +16.1 79 +30  1016.3  0.5  754  280           
15 17.08.17 тихо ()   10 км  в посл. час ливневой дождь{гроза}  8/8 600 м кучево-дожд. 
[Cb calv]
+16.8 +15.4 91 +26  1017.5  1.1  755  283    +26.6     
18 17.08.17 тихо ()   н/о  слаб. ливневой дождь{гроза}  10/10 600 м кучево-дожд. 
[Cb calv]
+15.9 +14.7 93 +24  1017.2  -0.3  755  284    +26.6     
21 17.08.17 350 (С) н/о  {ливн. осадки}  8/8 600 м кучево-дожд. 
[Cb calv]
+14.2 +13.5 96 +21  1017.1  -0.3  754  286           
00 18.08.17 тихо ()   10 км  {ливн. осадки}  4/4 600 м кучево-дожд. 
[Cb calv]
+12.4 +11.3 93 +15  1018.1  0.9  755  289           
03 18.08.17 340 (С) 10 км    8/0 средняя, верхняя 
[Ac trans|Ci fib]
+16.1 +13.4 84 +23  1019  1.1  756  285      0.8     
06 18.08.17 320 (СЗ) 10 км    8/6 1000 м кучево-дожд., верхняя 
[Cb calv|Ci fib]
+20.2 +10.9 55 +22  1018.6  -0.2  756  282  +12.3    0.8     
09 18.08.17 350 (С) 10 км  слаб. ливневой дождь  9/9 600 м кучево-дожд. 
[Cb calv]
+18.7 +11.2 62 +23  1018.4  -0.3  756  283           
12 18.08.17 тихо ()   10 км  {ливн. осадки}  6/4 600 м кучево-дожд., средняя 
[Cb calv|Ac trans]
+18.3 +11.5 65 +21  1018.8  0.3  756  283           
15 18.08.17 350 (С) 10 км    3/3 600 м кучево-дожд. 
[Cb calv]
+15.6 +9.6 67 +17  1019.7  0.9  756  287    +20.4     
18 18.08.17 340 (С) н/о    ясно 
+11.4 +9.6 89 +13  1020.5  0.6  757  291    +20.4     
21 18.08.17 340 (С) н/о    ясно 
+10.2 +9 92 +11  1021.1  0.5  757  293           
00 19.08.17 310 (СЗ) 10 км    ясно 
+7.6 +6.9 95 +9  1022  0.8  758  296           
03 19.08.17 350 (С) 10 км    ясно 
+12.8 +10.3 85 +15  1022.6  0.8  758  290           
06 19.08.17 340 (С) 10 км    3/3 1000 м 
[Cu hum]
+19 +9.5 54 +20  1022.4  0.1  759  284  +7.5         
09 19.08.17 350 (С) 10 км    4/4 1000 м 
[Cu med, cong]
+21 +6.8 40 +21  1021.7  -0.7  758  283           
12 19.08.17 340 (С) 10 км    6/6 1000 м 
[Cu med, cong]
+20.5 +6.3 40 +21  1021.7  758  283           
15 19.08.17 тихо ()   10 км    9/9 600 м кучево-дожд. 
[Cb calv]
+15.9 +11 73 +18  1022.7  0.8  759  287    +21.3       
18 19.08.17 тихо ()   н/о    10/10 600 м кучево-дожд. 
[Cb calv]
+14.3 +10.7 79 +16  1022.8  759  289    +21.3       
21 19.08.17 тихо ()   н/о    10/10 600 м кучево-дожд. 
[Cb calv]
+13.3 +9.8 79 +14  1022.7  -0.1  759  290           
00 20.08.17 тихо ()   10 км    4/0 средняя 
[Ac trans]
+11.1 +9.3 89 +11  1023.1  0.3  759  292           
Время (UTC), дата Ветер
(°,м/с) 
Видим.   Явления Облачность Т
(°С)
Тd
(°С)
f(%) Тe
(°С)
Pmin
(гПа)
dP
(гПа)
Po
(мм)
O2
(г/м3)
Тmin Tmax R s Состояние
почвы

Для получения пояснительной информации подведите курсор к названию столбца.

ПОГОДА в Иртышске - архив

Всё, что Вы хотите узнать о погоде в Иртышске - удобно и подробно!

Выберите нужную дату (начиная с 1 января 2015* года) и нажмите кнопку "Найти".
Будут отображены архивные сводки погоды по пункту Иртышск, начиная с указанной даты.


Отображать данные в формате CSV (для использования в таблицах Excel)


Внимание! Наш архив погоды предназначен исключительно для личного некоммерческого использования в познавательных целях. Если Вам необходимы официальные справки о состоянии погоды (для производственных, юридических, коммерческих и т.п. целей), обращайтесь в органы Росгидромета.

*Примечание: данная дата относится к архиву по метеостанциям СССР (Россия, СНГ, Балтия).
Архив по метеостанциям Зарубежной Европы и Азии (кроме Китая) хранится 10 дней, по другим регионам земного шара (Китай, Африка, Америка, Австралия, Океания) - 1 день.

Иртышск - район местоположения метеостанции


Название, широта, долгота, высота метеостанции:
Иртышск 53.3°ш. 75.4°д. 94 м над ур. моря [Казахстан]

Дополнительная информация

В oтличие oт бoльшинства пoгoдных сайтoв мы публикуем пoдрoбную метеoинфoрмацию в детальнoм прoфессиoнальнoм фoрмате.

Характеристики температуры и влажнoсти вoздуха измеряются на высoте 2 м в тени вдали oт зданий и деревьев.
Скoрoсть ветра измеряется на высoте 10 м (на урoвне рoста челoвека скoрoсть ветра ниже в 1.5-2 раза). Если метеoстанция нахoдится в гoрoде или в лесу, тo скoрoсть ветра занижена на 2-4 м/с пo сравнению с oткрытым местoм. Скoрoсть ветра над акватoриями крупных рек и oзёр, а также на вершинах хoлмoв на 2-5 м/с выше, чем в oбычных услoвиях.
Атмoсфернoе давление в разных тoчках местнoсти мoжет значительнo oтличаться oт давления на метеoстанции, в зависимoсти oт услoвий рельефа (при пoдъёме на 10 м давление пoнижается примернo на 1 мм рт.ст.).